User: anonymous   Login
Location: Asheville, NC
(35.6000°N, 82.5500°W)
Time: 09:13:10
(UTC-05:00)
Language:

QB50P2 - Orbit

View from above orbital plane
View from above orbital plane
View from above satellite
View from above satellite

Ground track
Ground track

The orbit data is extracted from the following two-line orbital elements,

1 40032U 14033Y   18021.19304347  .00000270  00000-0  35394-4 0  9990
2 40032  97.9056 295.7476 0010827 308.7266  51.2982 14.88170130194865
Epoch (UTC): 21 January 2018 04:37:58
Eccentricity: 0.0010827
inclination: 97.9056°
perigee height: 596 km
apogee height: 611 km
right ascension of ascending node: 295.7476°
argument of perigee: 308.7266°
revolutions per day: 14.88170130
mean anomaly at epoch: 51.2982°
orbit number at epoch: 19486

The dashed part of the orbit path shows where the satellite is in the earth's shadow,  

DLR